GW5931 Weather Reports


time (UTC)temp
F
wind
direction
speed
knots
gust
knots
rain 1hr
in
rain 24hr
in
rain mn
in
humidity
%
barometer
mb
20260906210016 71 323 2.6 7.0 0.00 0.00 0.00 62 1017.0
20260906204509 69 332 2.6 7.0 0.00 0.00 0.00 68 1016.8
20260906203008 69 80 2.6 8.7 0.00 0.00 0.00 69 1016.8
20260906201506 69 74 1.7 4.3 0.00 0.00 0.00 69 1016.8
20260906200018 68 98 2.6 10.4 0.00 0.00 0.00 72 1016.9
20260906194503 68 74 6.1 9.6 0.00 0.00 0.00 69 1016.9
20260906193002 68 99 5.2 10.4 0.00 0.00 0.00 66 1017.1
20260906191501 68 350 3.5 9.6 0.00 0.00 0.00 70 1017.1
20260906190101 69 109 2.6 9.6 0.00 0.00 0.00 69 1017.0
20260906184609 68 44 5.2 11.3 0.00 0.00 0.00 71 1016.9
20260906183103 68 50 6.1 11.3 0.00 0.00 0.00 71 1017.0
20260906181558 68 86 3.5 7.8 0.00 0.00 0.00 71 1016.9
20260906181555 68 61 3.5 7.8 0.00 0.00 0.00 71 1016.9
20260906180056 68 109 6.1 11.3 0.00 0.00 0.00 72 1016.9
20260906174554 68 37 5.2 11.3 0.00 0.00 0.00 70 1016.8
20260906173052 68 62 4.3 9.6 0.00 0.00 0.00 73 1016.9
20260906171600 69 22 5.2 10.4 0.00 0.00 0.00 74 1016.9
20260906170053 68 117 6.1 13.0 0.00 0.00 0.00 77 1017.0
20260906164554 67 104 5.2 11.3 0.00 0.00 0.00 78 1016.9
20260906163050 66 115 5.2 10.4 0.00 0.00 0.00 82 1016.9
20260906161541 66 68 5.2 8.7 0.00 0.00 0.00 79 1016.9
20260906160048 67 95 3.5 9.6 0.00 0.00 0.00 78 1016.9
20260906154537 67 105 4.3 9.6 0.00 0.00 0.00 77 1016.9
20260906153042 67 95 1.7 8.7 0.00 0.00 0.00 78 1016.7
20260906151532 67 103 3.5 9.6 0.00 0.00 0.00 79 1016.6
20260906150045 67 98 6.1 10.4 0.00 0.00 0.00 79 1016.6
20260906144535 67 87 4.3 10.4 0.00 0.00 0.00 81 1016.6
20260906143034 67 350 0.9 7.8 0.00 0.00 0.00 82 1016.5
20260906141534 66 82 0.9 8.7 0.00 0.00 0.00 86 1016.5
20260906140021 65 81 2.6 9.6 0.00 0.00 0.00 88 1016.4
20260906134512 66 165 2.6 7.0 0.00 0.00 0.00 90 1016.2
20260906133008 65 92 4.3 8.7 0.00 0.00 0.00 93 1016.1
20260906131519 65 355 0.9 8.7 0.00 0.00 0.00 94 1016.0
20260906130000 64 341 0.9 7.0 0.00 0.00 0.00 95 1016.0
20260906124559 64 35 0.9 3.5 0.00 0.00 0.00 95 1016.0
20260906123056 63 355 2.6 7.0 0.00 0.00 0.00 95 1015.7
20260906121555 63 341 0.9 3.5 0.00 0.00 0.00 96 1015.9
20260906120050 62 339 0.9 2.6 0.00 0.00 0.00 96 1015.7
20260906114549 61 339 0.0 1.7 0.00 0.00 0.00 96 1015.4
20260906113042 59 339 0.0 0.0 0.00 0.00 0.00 96 1015.3
20260906111546 59 339 0.0 0.0 0.00 0.00 0.00 96 1015.1
20260906110042 58 339 0.0 0.0 0.00 0.00 0.00 96 1014.9
20260906104532 58 339 0.0 0.0 0.00 0.00 0.00 95 1014.8
20260906103029 58 339 0.0 0.0 0.00 0.00 0.00 95 1014.6
20260906101529 58 339 0.0 0.0 0.00 0.00 0.00 95 1014.5
20260906100026 58 339 0.0 0.0 0.00 0.00 0.00 95 1014.4
20260906094531 58 339 0.0 0.0 0.00 0.00 0.00 95 1014.2
20260906093022 58 339 0.0 0.0 0.00 0.00 0.00 95 1014.1
20260906091520 59 339 0.0 0.9 0.00 0.00 0.00 95 1014.0
20260906090016 59 339 0.0 0.0 0.00 0.00 0.00 95 1013.8
20260906084515 59 339 0.0 0.9 0.00 0.00 0.00 95 1013.6
20260906083012 59 339 0.0 1.7 0.00 0.00 0.00 94 1013.3
20260906081533 59 339 0.0 0.0 0.00 0.00 0.00 94 1013.2
20260906080046 60 339 0.0 0.0 0.00 0.00 0.00 94 1013.3
20260906074537 60 339 0.0 0.0 0.00 0.00 0.00 94 1013.4
20260906073005 60 339 0.0 0.0 0.00 0.00 0.00 94 1013.2
20260906071503 61 339 0.0 0.0 0.00 0.00 0.00 94 1013.1
20260906070101 61 339 0.0 0.9 0.00 0.00 0.00 93 1013.2
20260906064558 62 339 0.0 0.0 0.00 0.00 0.00 93 1013.2
20260906063057 62 339 0.0 0.9 0.00 0.00 0.00 93 1013.3
20260906061557 62 339 0.0 0.0 0.00 0.00 0.00 93 1013.1
20260906060054 63 339 0.0 0.9 0.00 0.00 0.00 93 1013.1
20260906054554 63 339 0.0 0.0 0.00 0.00 0.00 93 1013.2
20260906053053 63 339 0.0 0.9 0.00 0.00 0.00 93 1013.2
20260906051553 63 339 0.0 0.9 0.00 0.00 0.00 93 1013.1
20260906050112 63 339 0.0 0.0 0.00 0.00 0.00 93 1013.2
20260906044548 62 339 0.0 0.0 0.00 0.00 0.00 93 1013.2
20260906043048 62 339 0.0 0.0 0.00 0.00 0.00 92 1013.1
20260906041549 62 339 0.0 0.9 0.00 0.00 0.00 92 1013.0
20260906040048 62 339 0.0 0.9 0.00 0.00 0.00 92 1012.8
20260906034515 62 339 0.0 0.0 0.00 0.00 0.00 92 1012.9
20260906033012 62 339 0.0 0.0 0.00 0.00 0.00 92 1012.8
20260906031509 62 339 0.0 0.0 0.00 0.00 0.00 91 1012.8
20260906030009 62 339 0.0 0.9 0.00 0.00 0.00 91 1012.7
20260906024508 63 339 0.0 0.0 0.00 0.00 0.00 90 1012.6
20260906023008 63 339 0.0 0.9 0.00 0.00 0.00 90 1012.6
20260906021536 64 339 0.0 0.9 0.00 0.00 0.00 89 1012.5
20260906020049 64 339 0.0 0.0 0.00 0.00 0.00 88 1012.5
20260906014535 65 339 0.0 0.9 0.00 0.00 0.00 87 1012.4
20260906013031 65 339 0.0 0.0 0.00 0.00 0.00 86 1012.4
20260906011529 66 339 0.0 0.0 0.00 0.00 0.00 84 1012.3
20260906010029 67 339 0.0 0.9 0.00 0.00 0.00 82 1012.3
20260906004603 68 339 0.0 0.9 0.00 0.00 0.00 79 1012.3
20260906003100 69 339 0.0 2.6 0.00 0.00 0.00 78 1012.1
20260906001606 69 11 0.0 2.6 0.00 0.00 0.00 77 1012.0
20260906000056 70 5 0.9 3.5 0.00 0.00 0.00 76 1012.2
20260905234555 70 9 0.9 2.6 0.00 0.00 0.00 74 1012.2
20260905233108 71 360 0.9 3.5 0.00 0.00 0.00 71 1012.2
20260905231523 72 57 0.9 3.5 0.00 0.00 0.00 69 1012.2
20260905230023 73 59 0.9 3.5 0.00 0.00 0.00 66 1012.2
20260905224520 74 355 0.9 4.3 0.00 0.00 0.00 65 1012.1
20260905223032 73 70 0.9 3.5 0.00 0.00 0.00 65 1012.0
20260905221535 74 123 0.0 5.2 0.00 0.00 0.00 64 1012.0
20260905220019 74 17 1.7 4.3 0.00 0.00 0.00 63 1011.9
20260905214514 75 360 0.9 7.0 0.00 0.00 0.00 61 1011.9
20260905213013 75 324 1.7 7.0 0.00 0.00 0.00 60 1011.8
20260905211533 75 329 2.6 7.0 0.00 0.00 0.00 58 1011.7